Regional Weather Roundup
Issued by NWS

Home | Current Version | Previous Version | Text Only | Print | Product List | Glossary On
Versions: 1 2 3 4 5 6 7 8 9 10 11 12 13 14 15 16 17 18 19 20 21 22 23 24 25 26 27 28 29 30 31 32 33 34 35 36 37 38 39 40 41 42 43 44 45 46 47 48 49 50
000
ASUS44 KFWD 250415
RWRTX
NORTH TEXAS HOURLY WEATHER ROUNDUP
NATIONAL WEATHER SERVICE FORT WORTH TX
1100 PM CDT SUN MAY 24 2015

NOTE: "FAIR" INDICATES FEW OR NO CLOUDS BELOW 12,000 FEET WITH NO
SIGNIFICANT WEATHER AND/OR OBSTRUCTIONS TO VISIBILITY.

TXZ118-119-250500-
DALLAS/FORT WORTH METROPLEX

CITY           SKY/WX    TMP DP  RH WIND       PRES   REMARKS
DFW AIRPORT    PTCLDY    69  68  96 SE7       29.89R
DALLAS LOVE    PTCLDY    73  69  87 SE9       29.90R
FTW MEACHAM    CLEAR     71  68  90 SE7       29.88R
DAL-EXECUTIVE  CLEAR     72  69  90 SE7       29.90R
FTW-ALLIANCE   PTCLDY    69  67  93 SE6       29.89R
FTW-NAS-JRB    MOCLDY    72  69  90 SE3       29.89
FTW-SPINKS     CLOUDY    72  69  90 SE3       29.90S
ARLINGTON      PTCLDY    73  68  84 SE7       29.90R
GRAND PRAIRIE  PTCLDY    72  70  93 SE5       29.91R
ADDISON        MOCLDY    73  71  93 SE8       29.92R
MESQUITE       MOCLDY    72  70  95 SE6       29.91R
LANCASTER      PTCLDY    72  68  88 SE5       29.91R
$$

TXZ091>094-102>105-117-120-121-131>134-250500-
NORTH CENTRAL TEXAS

CITY           SKY/WX    TMP DP  RH WIND       PRES   REMARKS
SHRMAN/DENISON CLEAR     69  68  95 SE7       29.91R
GAINESVILLE    CLEAR     67  64  93 SE5       29.91R
BOWIE          CLEAR     66  66 100 SE5       29.88R
BRIDGEPORT     CLEAR     69  69 100 SE8       29.90R
DECATUR        CLEAR     67  65  91 SE9       29.89S
DENTON         CLEAR     69  66  90 SE7       29.89R
MCKINNEY       CLEAR     70  68  93 SE6       29.90R
GREENVILLE     MOCLDY    72  68  88 SE5       29.92R
ROCKWALL       MOCLDY    72  70  95 SE5       29.90R
TERRELL        PTCLDY    72  70  93 SE6       29.91R
WAXAHACHIE     MOCLDY    72  72 100 SE5       29.92R
CLEBURNE       PTCLDY    72  72 100 SE8       29.91R
GRANBURY       PTCLDY    71  68  90 SE5       29.90R
$$

TXZ083>090-098>101-113>116-127>130-139>142-154-155-250500-
WESTERN NORTH TEXAS

CITY           SKY/WX    TMP DP  RH WIND       PRES   REMARKS
WICHITA FALLS  CLEAR     68  65  90 SE9       29.84R
WF-KICKAPOO    CLEAR     72  66  81 SE12      29.86R
VERNON         CLEAR     72  60  67 SE13      29.82R
ABILENE        CLEAR     71  65  81 SE13      29.86R
ABILENE-DYESS  CLEAR     71  62  75 S13       29.85
BRECKENRIDGE   CLEAR     73  64  75 SE10      29.85R
GRAHAM         CLEAR     69  67  92 SE7       29.85R
MINERAL WELLS  CLEAR     69  67  93 SE8       29.87R
STEPHENVILLE   PTCLDY    70  66  85 SE6       29.92R
COMANCHE       CLEAR     68  68 100 SE6       29.90R
BROWNWOOD      CLEAR     72  66  83 SE8       29.89R
COLEMAN        CLEAR     71  67  89 SE8       29.88R
BRADY          CLEAR     70  68  94 SE8       29.89R
$$

TXZ143>147-156>162-174-175-250500-
CENTRAL TEXAS

CITY           SKY/WX    TMP DP  RH WIND       PRES   REMARKS
WACO           CLEAR     73  68  84 SE9       29.89R
WACO-TSTC      PTCLDY    73  68  83 SE7       29.90R
WACO-MCGREGOR  CLEAR     72  64  78 S9        29.91R
HILLSBORO      PTCLDY    72  67  86 SE9       29.90R
CORSICANA      CLEAR     73  70  90 SE7       29.92R
MEXIA          CLEAR     71  69  93 SE7       29.91R
HEARNE         CLEAR     73  69  88 SE6       29.93R
CAMERON        PTCLDY    73  69  89 S7        29.91R
TEMPLE         PTCLDY    72  64  78 SE12      29.90R
KILLEEN        PTCLDY    72  69  91 S10       29.90R
KILLEEN-SKYLRK PTCLDY    73  66  78 S12       29.91R
FORT HOOD      PTCLDY    73  69  87 S10       29.90R
GATESVILLE     CLEAR     72  70  94 SE5       29.92R
HAMILTON       CLEAR     72  72 100 S14       29.91R
LAMPASAS       PTCLDY    73  70  89 S7        29.90R
$$

TXZ095>097-106>112-122>126-135>138-148>153-164>167-250500-
EAST TEXAS

CITY           SKY/WX    TMP DP  RH WIND       PRES   REMARKS
PARIS          PTCLDY    70  64  83 S7        29.92R
SULPHUR SPRNGS MOCLDY    72  69  92 S6        29.95R
MOUNT PLEASANT MOCLDY    69  67  95 SE5       29.95R
GILMER         MOCLDY    69  68  96 SE3       29.94R
MINEOLA        CLEAR     72  72 100 SE3       29.94R
TYLER          CLEAR     70  69  97 S8        29.93R
LONGVIEW       MOCLDY    71  69  93 SE9       29.94R
MARSHALL       MOCLDY    73  71  92 SE3       29.97S
ATHENS         CLEAR     70  70 100 S3        29.91S
PALESTINE      CLEAR     72  70  95 SE5       29.94S FOG
JACKSONVILLE   PTCLDY    71  69  95 S7        29.97R
HENDERSON      MOCLDY    70  69  96 S6        29.96R
NACOGDOCHES      N/A     72  68  88 SE7       29.96R
LUFKIN         PTCLDY    73  69  87 SE6       29.95R
$$

SUPPLEMENTAL OBSERVATIONS (CENTRAL)

CITY           SKY/WX    TMP DP  RH WIND       PRES   REMARKS
LAKE TEXOMA      N/A     70  66  88 SE3         N/A
CADDO GRASSLND   N/A     70  68  94 S3          N/A
PAT MAYSE LAKE   N/A     70  68  94 E2          N/A
GREENVILLE       N/A     70  66  88 S3          N/A
CEDAR HILL       N/A     72  66  83 SE5         N/A
ATHENS           N/A     72  68  88 S7          N/A
LAKE LIMESTONE   N/A     72  68  88 SE2         N/A
MCGREGOR         N/A     72  68  88 S8          N/A
TEMPLE           N/A     72  66  83 SE6         N/A
$$

SUPPLEMENTAL OBSERVATIONS (WEST)

CITY           SKY/WX    TMP DP  RH WIND       PRES   REMARKS
MILLERS CREEK    N/A     72  66  83 SE14        N/A
POSSUM KINGDOM   N/A     72  66  83 SE8         N/A
LBJ GRASSLAND    N/A     70  66  88 SE9         N/A
GRANBURY         N/A     72  66  83 SE7         N/A
COMANCHE         N/A     68  64  88 SE7         N/A
HAMBY            N/A     72  64  78 SE9         N/A
IVIE RESERVOIR   N/A     70  64  83 SE7         N/A
COLORADO BEND    N/A     72  68  88 S7          N/A
$$

SUPPLEMENTAL OBSERVATIONS (EAST)

CITY           SKY/WX    TMP DP  RH WIND       PRES   REMARKS
TEXARKANA        N/A     72  66  83 S1          N/A
LINDEN           N/A     70  68  94 CALM        N/A
CADDO LAKE       N/A     70  68  94 SE3         N/A
LUFKIN           N/A     72  66  83 MISG        N/A
N SABINE NF      N/A     70  68  94 MISG        N/A
$$

SUPPLEMENTAL OBSERVATIONS ARE A COLLECTION OF AUTOMATED INSTRUMENTS
THAT ARE MAINTAINED BY A VARIETY OF FEDERAL AND STATE AGENCIES.
CERTAIN ELEMENTS...SUCH AS HUMIDITY VALUES AND SUSTAINED WIND
SPEEDS...MAY BE APPROXIMATED.



USA.gov is the U.S. government's official web portal to all federal, state and local government web resources and services.